SCOUT X-4 R/B, 1815

Orbit data source: Space-Track

SCOUT X-4 R/B, 1815 is space debris in LEO originally from a launch on Mon, 06 Dec 1965 UTC launched from the Air Force Western Test Range (AFWTR). Debris objects in space refer to the collection of defunct objects orbiting the Earth. Examples of debris include non-operational satellites, rocket bodies, and fragments generated from explosions, collisions, or faulty payload assembly.

Loading next visibility...
SCOUT X-4 R/B details
Identifier
1815, 1965-101B
Orbit
LEO
Last TLE update10 hours ago
Origin
Flag of USNASA LaRC (US)
ManufacturerABL
MissionSpacecraft
Bus & MotorALTAIR, Unknown motor
Mass33 kg wet, 33 kg dry
Launch date (UTC)
1965-12-06 (59 years ago)
Launch vehicleUnknown
Launch site
Air Force Western Test Range (AFWTR)
Object type
Payload
Rocket body
Debris
Shape & HBRCyl, 1.5 m
Radar Cross Section0.687 m², Medium (>0.1 m² and < 1m²)

Expand to show TLE details & history

TLE from 10 hours ago
0 SCOUT X-4 R/B
1 01815U 65101B   24361.13207119  .00005808  00000-0  64340-3 0  9999
2 01815  75.8426 225.9965 0004520 102.9895 257.1800 14.87422902988087
Epoch: 2024-12-26T03:10Z
Definitive object data (Epoch: 2024-12-26T03:10:10.95Z)
Latitude-0.00006°
Longitude83.335°
Altitude609.466 km
Speed7.554 km/s
True Right ascension15h 03m 59s
True Declination0° 00' 00"
Sunlit
Object was in daylight at TLE epoch
Visualization TLE readout
Latitude8.24728°
Longitude-99.5204°
Altitude606.949 km
Speed7.557 km/s
Apparent Right ascension02h 05m 42s
Apparent Declination-15° 00' 60"
Sunlit
Object is in full shadow
Visualization observer readout
Local Sidereal Time12:59:05
Azimuth324.986° NNW
Elevation-61.162°
Doppler factor1
Orbital elements
Apogee altitude606.565 km
Perigee altitude600.253 km
Semi-major axis6,981.546 km
Eccentricity0.000452
Inclination75.8426°
RAAN225.9965°
Arg. of periapsis102.9895°
True anomaly257.1295°
Mean anomaly257.18°
Eccentric anomaly257.15475°
Mean motion3.72062 °/min
BSTAR0.0006434
Orbital period96.76 mins
Loading maneuver chart data...
Loading historical data...
Loading historical data...
Loading historical data...
Loading historical data...
Loading historical data...
Loading historical data...
Loading historical data...

SCOUT X-4 R/B Visibility forecast

Observer location: undefined°, undefined

Span
Click to sort rows by Start time (UTC) header in descending order
Start Az.
Max El. time (UTC)
Max El. Az.
Max El.
End time (UTC)
End Az.
7 mins2024-12-26 16:12:23.500Z185.35° SSW2024-12-26 16:16:23.500Z68.563° E42.002°2024-12-26 16:19:23.500Z23.333° NE
6 mins2024-12-27 02:20:23.500Z1.693° NNE2024-12-27 02:23:23.500Z87.194° E37.405°2024-12-27 02:26:23.500Z143.652° SSE
|